Powrót do katalogu

NNSS 20

TRANSIT 20

AktywnyNawigacjaPO
NORAD 6909·PAYLOAD·🇺🇸 United States

Wystrzelony Oct 30, 1973 z Vandenberg Space Force Base

Loading…

Następne Przeloty (najbliższe 24 godziny)

TLE

ŚwieżeSource: Space-Track

Epoka: Sep 14, 2026, 09:25 UTC

1 06909U 73081A   26257.39299882  .00000130  00000-0  12337-3 0  9998
2 06909  89.8593 250.9651 0153434 332.3140  26.9913 13.71532142841396

Śledź NNSS 20 w czasie rzeczywistym z AllMySat

Download on the App Store